Location: Newark
(30.1997°N, 31.2053°E)
Time: 11:41:51
(UTC+00:00)

Envisat - Visible Passes

Search period start: 24 September 2020 00:00
Search period end: 04 October 2020 00:00
Orbit: 764 x 766 km, 98.1° (Epoch: 23 September)

Date Brightness Start Highest point End Pass type
(mag) Time Alt. Az. Time Alt. Az. Time Alt. Az.
24 Sep 6.6 02:35:32 10° E 02:36:36 11° E 02:37:40 10° ESE visible
25 Sep 6.1 16:23:21 10° SW 16:26:46 18° W 16:30:11 10° NW visible
26 Sep 5.9 02:58:25 10° NE 03:02:13 21° E 03:06:01 10° SE visible
28 Sep 5.8 16:11:19 10° SSW 16:15:20 24° W 16:19:22 10° NW visible
29 Sep 6.1 02:47:42 10° ENE 02:50:48 16° E 02:53:53 10° SE visible
30 Sep 6.4 16:39:00 10° WSW 16:40:57 12° W 16:42:54 10° WNW visible
01 Oct 5.2 03:11:55 10° NE 03:16:22 30° E 03:20:48 10° SSE visible
01 Oct 5.3 15:59:29 10° SSW 16:03:55 31° W 16:08:24 10° NW visible
02 Oct 6.4 02:37:27 10° ENE 02:39:21 12° E 02:41:14 10° ESE visible
03 Oct 6.2 16:26:23 10° SW 16:29:30 16° W 16:32:38 10° NW visible
